Location: Unspecified
(49.2170°N, 0.0000°E)
Time: 14:31:35
(UTC+00:00)

Altair - Visible Passes

Search period start: 23 January 2021 00:00
Search period end: 02 February 2021 00:00
Orbit: 1501 x 1682 km, 47.2° (Epoch: 22 January)

Date Brightness Start Highest point End Pass type
(mag) Time Alt. Az. Time Alt. Az. Time Alt. Az.
23 Jan 9.4 03:27:55 12° SSE 03:33:31 20° SE 03:40:04 10° E visible
23 Jan 8.3 05:26:58 10° SW 05:36:32 51° SSE 05:46:13 10° ENE visible
24 Jan 9.4 03:05:00 15° SSE 03:08:30 18° SE 03:14:31 10° E visible
24 Jan 8.3 05:03:04 14° SW 05:11:24 49° SSE 05:20:59 10° ENE visible
24 Jan 7.9 07:05:33 10° WSW 07:15:40 78° S 07:25:50 10° E visible
25 Jan 9.4 02:41:53 15° SE 02:43:29 16° SE 02:48:53 10° E visible
25 Jan 8.3 04:39:57 22° SSW 04:46:16 46° SE 04:55:44 10° ENE visible
25 Jan 7.9 06:40:22 10° WSW 06:50:27 77° SSE 07:00:37 10° E visible
26 Jan 9.5 02:18:36 14° ESE 02:18:36 14° ESE 02:23:08 10° E visible
26 Jan 8.4 04:16:40 29° SSW 04:21:09 44° SE 04:30:30 10° ENE visible
26 Jan 7.8 06:15:12 10° WSW 06:25:15 75° SSE 06:35:24 10° E visible
27 Jan 9.6 01:55:13 12° ESE 01:55:13 12° ESE 01:57:10 10° E visible
27 Jan 8.4 03:53:16 35° S 03:56:02 41° SE 04:05:14 10° ENE visible
27 Jan 7.8 05:51:18 15° WSW 06:00:03 74° SSE 06:10:11 10° E visible
28 Jan 8.4 03:29:45 37° SSE 03:30:56 39° SE 03:39:58 10° ENE visible
28 Jan 7.8 05:27:48 23° WSW 05:34:51 72° SSE 05:44:58 10° E visible
29 Jan 8.5 03:06:10 36° SE 03:06:10 36° SE 03:14:41 10° ENE visible
29 Jan 7.8 05:04:13 31° SW 05:09:39 70° SSE 05:19:45 10° E visible
30 Jan 8.7 02:42:31 32° ESE 02:42:31 32° ESE 02:49:24 10° ENE visible
30 Jan 7.7 04:40:33 41° SW 04:44:28 68° SSE 04:54:32 10° E visible
30 Jan 7.8 06:39:02 10° W 06:49:10 81° S 06:59:21 10° E visible
31 Jan 8.9 02:18:48 26° ESE 02:18:48 26° ESE 02:24:05 10° E visible
31 Jan 7.7 04:16:50 52° SSW 04:19:17 66° SSE 04:29:18 10° E visible
31 Jan 7.7 06:14:51 14° W 06:23:57 81° S 06:34:09 10° E visible
01 Feb 9.2 01:55:03 21° E 01:55:03 21° E 01:58:45 10° E visible
01 Feb 7.6 03:53:04 60° S 03:54:07 63° SSE 04:04:05 10° E visible
01 Feb 7.7 05:51:05 20° W 05:58:43 81° S 06:08:56 10° E visible
